ALK318 VCBI-WMKK

Flight info

Callsign ALK318
Flight time N/A
Altitude 39000
Route DUDAL1D VEVET P570 MABIX P756 ISVUR R461 PUGER PUGER1K
Aircraft A20N/M-SDE2E3FGHIRWXY/LB1

Departure

Time 2026-04-28 04:03
Airport Bandaranaike International Colombo Airport (VCBI)

Arrival

Time N/A
Airport Kuala Lumpur International Airport (WMKK)
Time Latitude Longitude Altitude Speed Heading
2026-04-28 03:44 7.17615 79.88567 30 ft 0 kts 217°
2026-04-28 03:45 7.17629 79.88578 30 ft 3 kts 217°
2026-04-28 03:45 7.17644 79.88590 30 ft 3 kts 217°
2026-04-28 03:45 7.17659 79.88601 30 ft 3 kts 217°
2026-04-28 03:46 7.17674 79.88612 30 ft 3 kts 217°
2026-04-28 03:46 7.17688 79.88623 30 ft 3 kts 227°
2026-04-28 03:46 7.17696 79.88640 30 ft 3 kts 268°
2026-04-28 03:46 7.17693 79.88656 30 ft 0 kts 303°
2026-04-28 03:49 7.17700 79.88645 30 ft 4 kts 304°
2026-04-28 03:49 7.17731 79.88606 30 ft 9 kts 306°
2026-04-28 03:50 7.17774 79.88546 30 ft 11 kts 308°
2026-04-28 03:50 7.17818 79.88489 30 ft 10 kts 308°
2026-04-28 03:50 7.17867 79.88439 30 ft 10 kts 337°
2026-04-28 03:50 7.17926 79.88457 31 ft 9 kts 34°
2026-04-28 03:51 7.17979 79.88496 30 ft 11 kts 37°
2026-04-28 03:51 7.18054 79.88554 30 ft 16 kts 38°
2026-04-28 03:51 7.18113 79.88599 30 ft 0 kts 37°
2026-04-28 03:52 7.18115 79.88600 30 ft 0 kts 37°
2026-04-28 03:53 7.18118 79.88602 30 ft 0 kts 37°
2026-04-28 03:58 7.18118 79.88603 30 ft 1 kts 37°
2026-04-28 03:58 7.18140 79.88620 30 ft 8 kts 37°
2026-04-28 03:58 7.18196 79.88662 30 ft 12 kts 37°
2026-04-28 03:58 7.18267 79.88716 30 ft 13 kts 35°
2026-04-28 03:59 7.18340 79.88770 30 ft 14 kts 38°
2026-04-28 03:59 7.18416 79.88830 30 ft 14 kts 38°
2026-04-28 03:59 7.18492 79.88889 31 ft 14 kts 37°
2026-04-28 03:59 7.18568 79.88947 31 ft 14 kts 37°
2026-04-28 04:00 7.18646 79.89006 31 ft 15 kts 36°
2026-04-28 04:00 7.18739 79.89076 31 ft 17 kts 38°
2026-04-28 04:00 7.18834 79.89150 31 ft 17 kts 37°
2026-04-28 04:00 7.18929 79.89223 30 ft 17 kts 36°
2026-04-28 04:01 7.19023 79.89297 30 ft 17 kts 36°
2026-04-28 04:01 7.19119 79.89368 30 ft 17 kts 36°
2026-04-28 04:01 7.19217 79.89393 30 ft 15 kts 322°
2026-04-28 04:01 7.19284 79.89311 30 ft 15 kts 300°
2026-04-28 04:02 7.19195 79.89198 31 ft 45 kts 218°
2026-04-28 04:02 7.18763 79.88869 32 ft 109 kts 217°
2026-04-28 04:02 7.18010 79.88295 36 ft 160 kts 218°
2026-04-28 04:02 7.17107 79.87588 417 ft 166 kts 218°
2026-04-28 04:03 7.16196 79.86909 1046 ft 159 kts 204°
2026-04-28 04:03 7.15157 79.86930 1644 ft 153 kts 156°
2026-04-28 04:03 7.14103 79.87479 1963 ft 191 kts 153°
2026-04-28 04:03 7.12836 79.88170 2329 ft 222 kts 152°
2026-04-28 04:04 7.11424 79.88954 2910 ft 239 kts 151°
2026-04-28 04:04 7.10023 79.89914 3666 ft 248 kts 139°
2026-04-28 04:04 7.08854 79.91206 4495 ft 252 kts 126°
2026-04-28 04:04 7.07928 79.92722 5283 ft 258 kts 117°
2026-04-28 04:05 7.07163 79.94396 5931 ft 268 kts 112°
2026-04-28 04:05 7.06502 79.96169 6621 ft 273 kts 109°
2026-04-28 04:05 7.05898 79.97993 7360 ft 276 kts 108°
2026-04-28 04:05 7.05321 79.99848 8108 ft 279 kts 107°
2026-04-28 04:06 7.04757 80.01724 8888 ft 282 kts 106°
2026-04-28 04:06 7.04196 80.03622 9671 ft 284 kts 106°
2026-04-28 04:06 7.03634 80.05544 10302 ft 291 kts 106°
2026-04-28 04:06 7.03046 80.07563 10610 ft 310 kts 106°
2026-04-28 04:07 7.02427 80.09697 10979 ft 324 kts 106°
2026-04-28 04:07 7.01789 80.11895 11524 ft 330 kts 106°
2026-04-28 04:07 7.01142 80.14129 12141 ft 334 kts 106°
2026-04-28 04:07 7.00488 80.16385 12769 ft 338 kts 106°
2026-04-28 04:08 6.99827 80.18663 13423 ft 341 kts 106°
2026-04-28 04:08 6.99187 80.20970 14029 ft 344 kts 104°
2026-04-28 04:08 6.98595 80.23313 14631 ft 346 kts 104°
2026-04-28 04:08 6.98013 80.25671 15241 ft 349 kts 104°
2026-04-28 04:09 6.97427 80.28048 15876 ft 351 kts 104°
2026-04-28 04:09 6.96838 80.30440 16485 ft 353 kts 104°
2026-04-28 04:09 6.96243 80.32849 17095 ft 356 kts 104°
2026-04-28 04:09 6.95644 80.35276 17676 ft 358 kts 104°
2026-04-28 04:10 6.95040 80.37718 18223 ft 361 kts 104°
2026-04-28 04:10 6.94429 80.40184 18680 ft 365 kts 104°
2026-04-28 04:10 6.93813 80.42670 19107 ft 368 kts 103°
2026-04-28 04:10 6.93192 80.45183 19547 ft 371 kts 103°
2026-04-28 04:11 6.92566 80.47713 20001 ft 374 kts 103°
2026-04-28 04:11 6.91935 80.50262 20448 ft 376 kts 103°
2026-04-28 04:11 6.91299 80.52826 20876 ft 380 kts 103°
2026-04-28 04:11 6.90657 80.55418 21300 ft 383 kts 103°
2026-04-28 04:12 6.90017 80.57999 21731 ft 386 kts 103°
2026-04-28 04:12 6.89356 80.60666 22183 ft 389 kts 103°
2026-04-28 04:12 6.88697 80.63321 22616 ft 393 kts 103°
2026-04-28 04:12 6.88032 80.66000 23058 ft 396 kts 103°
2026-04-28 04:13 6.87590 80.67783 23356 ft 398 kts 103°
2026-04-28 04:13 6.86917 80.70494 23736 ft 401 kts 103°
2026-04-28 04:13 6.86017 80.74117 24227 ft 404 kts 103°
2026-04-28 04:13 6.85337 80.76854 24611 ft 407 kts 104°
2026-04-28 04:14 6.84645 80.79640 24984 ft 410 kts 103°
2026-04-28 04:14 6.83951 80.82432 25354 ft 412 kts 103°
2026-04-28 04:14 6.83254 80.85239 25724 ft 415 kts 103°
2026-04-28 04:14 6.82781 80.87146 25971 ft 417 kts 103°
2026-04-28 04:15 6.82076 80.89985 26336 ft 419 kts 103°
2026-04-28 04:15 6.81367 80.92836 26688 ft 422 kts 104°
2026-04-28 04:15 6.79936 80.98595 27347 ft 427 kts 103°
2026-04-28 04:16 6.79213 81.01498 27663 ft 429 kts 104°
2026-04-28 04:16 6.78487 81.04415 27996 ft 431 kts 104°
2026-04-28 04:16 6.77756 81.07352 28310 ft 434 kts 104°
2026-04-28 04:16 6.77030 81.10267 28636 ft 436 kts 104°
2026-04-28 04:17 6.76296 81.13235 28930 ft 438 kts 103°
2026-04-28 04:17 6.75775 81.16262 29226 ft 441 kts 95°
2026-04-28 04:17 6.75616 81.19347 29508 ft 443 kts 91°
2026-04-28 04:17 6.75566 81.22458 29790 ft 446 kts 90°
2026-04-28 04:18 6.75534 81.25582 30054 ft 448 kts 90°
2026-04-28 04:18 6.75500 81.28724 30299 ft 450 kts 90°
2026-04-28 04:18 6.75463 81.31922 30552 ft 452 kts 91°
2026-04-28 04:18 6.75425 81.35046 30796 ft 453 kts 91°
2026-04-28 04:19 6.75384 81.38222 31036 ft 455 kts 91°
2026-04-28 04:19 6.75342 81.41449 31328 ft 455 kts 91°
2026-04-28 04:19 6.75300 81.44631 31680 ft 454 kts 91°
2026-04-28 04:19 6.75256 81.47761 32020 ft 453 kts 91°
2026-04-28 04:20 6.75020 81.50917 32336 ft 452 kts 98°
2026-04-28 04:20 6.74387 81.54050 32677 ft 451 kts 103°
2026-04-28 04:20 6.73636 81.57113 33005 ft 450 kts 104°
2026-04-28 04:20 6.72866 81.60157 33325 ft 449 kts 104°
2026-04-28 04:21 6.72096 81.63200 33627 ft 449 kts 104°
2026-04-28 04:21 6.71329 81.66238 33920 ft 448 kts 104°
2026-04-28 04:21 6.70564 81.69279 34179 ft 447 kts 104°
2026-04-28 04:21 6.69804 81.72306 34467 ft 446 kts 104°
2026-04-28 04:22 6.69055 81.75288 34739 ft 445 kts 104°
2026-04-28 04:22 6.68300 81.78298 35012 ft 444 kts 104°
2026-04-28 04:22 6.67536 81.81342 35266 ft 443 kts 104°
2026-04-28 04:22 6.66793 81.84304 35496 ft 442 kts 104°
2026-04-28 04:23 6.66030 81.87342 35742 ft 442 kts 104°
2026-04-28 04:23 6.65280 81.90331 35971 ft 441 kts 104°
2026-04-28 04:23 6.64529 81.93321 36195 ft 441 kts 104°
2026-04-28 04:23 6.63788 81.96270 36406 ft 440 kts 104°
2026-04-28 04:24 6.63039 81.99252 36620 ft 440 kts 104°
2026-04-28 04:24 6.62292 82.02235 36837 ft 439 kts 104°
2026-04-28 04:24 6.61548 82.05208 37046 ft 439 kts 104°
2026-04-28 04:24 6.60802 82.08185 37256 ft 438 kts 104°
2026-04-28 04:25 6.60056 82.11154 37469 ft 438 kts 104°
2026-04-28 04:25 6.59308 82.14121 37676 ft 437 kts 104°
2026-04-28 04:25 6.58561 82.17081 37882 ft 436 kts 104°
2026-04-28 04:25 6.57816 82.20032 38079 ft 436 kts 104°
2026-04-28 04:26 6.57069 82.22987 38266 ft 435 kts 104°
2026-04-28 04:26 6.56323 82.25936 38449 ft 435 kts 104°
2026-04-28 04:26 6.55578 82.28880 38618 ft 434 kts 104°
2026-04-28 04:26 6.54835 82.31819 38766 ft 434 kts 104°
2026-04-28 04:27 6.54092 82.34757 38868 ft 434 kts 104°
2026-04-28 04:27 6.52607 82.40621 38898 ft 431 kts 104°
2026-04-28 04:28 6.51129 82.46461 38889 ft 431 kts 104°
2026-04-28 04:28 6.49651 82.52301 38884 ft 431 kts 104°
2026-04-28 04:29 6.48173 82.58140 38887 ft 431 kts 104°
2026-04-28 04:29 6.46696 82.63973 38889 ft 430 kts 104°
2026-04-28 04:30 6.45219 82.69801 38886 ft 430 kts 104°
2026-04-28 04:30 6.43743 82.75623 38887 ft 430 kts 104°
2026-04-28 04:31 6.42275 82.81414 38888 ft 429 kts 104°
2026-04-28 04:31 6.40801 82.87227 38886 ft 429 kts 104°
2026-04-28 04:32 6.39327 82.93036 38889 ft 429 kts 104°
2026-04-28 04:32 6.37849 82.98847 38888 ft 429 kts 104°
2026-04-28 04:33 6.36371 83.04657 38886 ft 429 kts 104°
2026-04-28 04:33 6.34892 83.10467 38885 ft 429 kts 104°
2026-04-28 04:34 6.33414 83.16276 38882 ft 429 kts 104°
2026-04-28 04:34 6.31944 83.22051 38885 ft 429 kts 105°
2026-04-28 04:35 6.30462 83.27868 38883 ft 429 kts 105°
2026-04-28 04:35 6.28981 83.33681 38883 ft 429 kts 105°
2026-04-28 04:36 6.27497 83.39500 38881 ft 430 kts 105°
2026-04-28 04:36 6.26011 83.45323 38881 ft 430 kts 104°
2026-04-28 04:37 6.24524 83.51149 38882 ft 430 kts 104°
2026-04-28 04:37 6.23036 83.56976 38880 ft 431 kts 104°
2026-04-28 04:38 6.21546 83.62805 38886 ft 431 kts 104°
2026-04-28 04:38 6.20054 83.68642 38883 ft 431 kts 104°
2026-04-28 04:39 6.18561 83.74479 38885 ft 431 kts 104°
2026-04-28 04:39 6.17070 83.80306 38881 ft 430 kts 104°
2026-04-28 04:40 6.15582 83.86124 38883 ft 430 kts 104°
2026-04-28 04:40 6.14094 83.91931 38883 ft 429 kts 104°
2026-04-28 04:41 6.12608 83.97734 38884 ft 429 kts 104°
2026-04-28 04:41 6.11121 84.03530 38885 ft 428 kts 104°
2026-04-28 04:42 6.09636 84.09320 38886 ft 428 kts 104°
2026-04-28 04:42 6.08150 84.15106 38885 ft 428 kts 104°
2026-04-28 04:43 6.06664 84.20892 38885 ft 428 kts 104°
2026-04-28 04:43 6.05177 84.26678 38887 ft 428 kts 104°
2026-04-28 04:44 6.03690 84.32462 38886 ft 428 kts 104°
2026-04-28 04:44 6.02202 84.38250 38888 ft 428 kts 104°
2026-04-28 04:45 6.00713 84.44037 38888 ft 428 kts 104°
2026-04-28 04:45 5.99223 84.49826 38888 ft 428 kts 104°
2026-04-28 04:46 5.97732 84.55616 38890 ft 428 kts 103°
2026-04-28 04:46 5.96239 84.61411 38884 ft 429 kts 104°
2026-04-28 04:47 5.94744 84.67207 38886 ft 429 kts 103°
2026-04-28 04:47 5.93247 84.73014 38886 ft 430 kts 103°
2026-04-28 04:48 5.91748 84.78823 38890 ft 430 kts 104°
2026-04-28 04:48 5.90246 84.84643 38892 ft 431 kts 103°
2026-04-28 04:49 5.88742 84.90469 38890 ft 431 kts 104°
2026-04-28 04:49 5.87235 84.96301 38890 ft 432 kts 104°
2026-04-28 04:50 5.85725 85.02141 38889 ft 432 kts 104°
2026-04-28 04:50 5.84214 85.07981 38887 ft 432 kts 104°
2026-04-28 04:51 5.82705 85.13814 38889 ft 431 kts 104°
2026-04-28 04:51 5.81207 85.19604 38887 ft 431 kts 104°
2026-04-28 04:52 5.79698 85.25431 38891 ft 431 kts 104°
2026-04-28 04:52 5.78191 85.31247 38888 ft 430 kts 104°
2026-04-28 04:53 5.76685 85.37059 38887 ft 430 kts 104°
2026-04-28 04:53 5.75178 85.42870 38890 ft 430 kts 104°
2026-04-28 04:54 5.73672 85.48675 38888 ft 430 kts 104°
2026-04-28 04:54 5.72165 85.54483 38890 ft 429 kts 104°
2026-04-28 04:55 5.71412 85.57383 38893 ft 429 kts 104°